This demonstration page uses our WeatherBlox Daily Observations layout. Learn more.

Left ArrowRight Arrow

Hourly Observations for September 15, 2020

Temp ( °F °C ) Dew Point ( °F °C ) Humidity (%) Winds ( mph kmh ) Pressure ( in mb ) Visibility ( mi km ) Precip ( " mm )
12:51 am 00:51 Clear 74 23.3 55 12.8 52 52 E 15 24 30.04 1017 10 16.0934 0 0
1:51 am 01:51 Clear 73 22.8 54 12.2 51 51 E 10 17 30.04 1017 10 16.0934 0 0
2:51 am 02:51 Clear 71 21.7 53 11.7 53 53 SE 9 15 30.04 1017 10 16.0934 0 0
3:51 am 03:51 Clear 70 21.1 53 11.7 55 55 ESE 7 11 30.05 1018 10 16.0934 0 0
4:51 am 04:51 Clear 69 20.6 52 11.1 55 55 SSE 10 17 30.06 1018 10 16.0934 0 0
5:51 am 05:51 Clear 67 19.4 51 10.6 57 57 SE 8 13 30.07 1018 10 16.0934 0 0
6:51 am 06:51 Sunny 68 20 54 12.2 61 61 SE 7 11 30.09 1019 10 16.0934 0 0
7:51 am 07:51 Sunny 71 21.7 54 12.2 55 55 SE 9 15 30.09 1019 10 16.0934 0 0
8:51 am 08:51 Sunny 76 24.4 54 12.2 47 47 SSE 8 13 30.08 1019 10 16.0934 0 0
9:51 am 09:51 Sunny 79 26.1 54 12.2 42 42 S 9 15 30.08 1019 10 16.0934 0 0
10:51 am 10:51 Sunny 82 27.8 54 12.2 38 38 SSE 9 15 30.04 1017 10 16.0934 0 0
11:51 am 11:51 Sunny 84 28.9 53 11.7 34 34 SSE 7 11 30.01 1016 10 16.0934 0 0
12:51 pm 12:51 Sunny 88 31.1 50 10 27 27 undefined N/A 29.97 1015 10 16.0934 0 0
1:51 pm 13:51 Sunny 89 31.7 49 9.4 25 25 Calm 29.93 1014 10 16.0934 0 0
2:51 pm 14:51 Sunny 91 32.8 47 8.3 22 22 SE 10 17 29.9 1013 10 16.0934 0 0
3:51 pm 15:51 Sunny 91 32.8 45 7.2 20 20 VRB 5 7 29.88 1012 10 16.0934 0 0
4:51 pm 16:51 Sunny 91 32.8 44 6.7 20 20 S 6 9 29.88 1012 10 16.0934 0 0
5:51 pm 17:51 Sunny 87 30.6 49 9.4 27 27 undefined N/A 29.91 1013 10 16.0934 0 0
6:51 pm 18:51 Clear 86 30 45 7.2 24 24 Calm 29.88 1012 10 16.0934 0 0
7:51 pm 19:51 Clear 81 27.2 42 5.6 25 25 E 6 9 29.91 1013 10 16.0934 0 0
8:51 pm 20:51 Clear 78 25.6 43 6.1 29 29 E 3 6 29.92 1013 10 16.0934 0 0
9:51 pm 21:51 Clear 78 25.6 43 6.1 29 29 E 8 13 29.92 1013 10 16.0934 0 0
10:51 pm 22:51 Clear 74 23.3 45 7.2 36 36 ESE 6 9 29.92 1013 10 16.0934 0 0
11:51 pm 23:51 Clear 73 22.8 46 7.8 38 38 SE 5 7 29.91 1013 10 16.0934 0 0

Powered by AerisWeather